AEHF-6 (USA 298)

Last updated on Thu Oct 30 2025 00:02:51 GMT+0000 (Coordinated Universal Time)

1 45465U 20022B 25302.47768218 -.00000292 00000+0 00000+0 0 9997 2 45465 3.0660 298.9368 0045617 6.9180 41.9366 1.00274998 20701
UTC large
Height (km)
Speed (km/s)
/
Latitude / Longitude
Inclination (degrees)
Orbital Period (minutes)
Azimuth
Elevation
Range (km)
Doppler Factor

Next 0 passes for location: London (51.5072 / 0.1276)

Sorry there are no passes over London.